Location: Santiago
(33.4378°S, 70.6505°W)
Time: 10:13:53
(UTC+00:00)

ISS - Pass Details

Date: 03 October 2024
Orbit: 412 x 424 km, 51.6° (Epoch: 09 October)

Event Time Altitude Azimuth Distance (km) Brightness Sun altitude
Rises 09:23:56 0° 210° (SSW) 2,402 -0.1 -11.6°
Reaches altitude 10° 09:27:06 10° 178° (S) 1,527 -0.7 -11.0°
Maximum altitude 09:28:37 12° 152° (SSE) 1,382 -0.5 -10.7°
Drops below altitude 10° 09:30:09 10° 125° (SE) 1,518 0.3 -10.3°
Sets 09:33:16 0° 94° (E) 2,373 2.2 -9.7°
